Regional Weather Roundup
Issued by NWS

Home | Current Version | Previous Version | Text Only | Print | Product List | Glossary On
Versions: 1 2 3 4 5 6 7 8 9 10 11 12 13 14 15 16 17 18 19 20 21 22 23 24 25 26 27 28 29 30 31 32 33 34 35 36 37 38 39 40 41 42 43 44 45 46 47 48 49 50
000
ASUS44 KJAN 301403
RWRMS

MISSISSIPPI HOURLY WEATHER ROUNDUP
NATIONAL WEATHER SERVICE JACKSON MS
900 AM CDT SAT APR 30 2016

NOTE: "FAIR: INDICATES FEW OR NO CLOUDS BELOW 12,000 FEET WITH NO
SIGNIFICANT WEATHER AND/OR OBSTRUCTIONS TO VISIBILITY.

MSZ001>002-007>008-010>013-018>021-025>028-034>036-301500-
NORTHWEST MISSISSIPPI

CITY           SKY/WX    TMP DP  RH WIND       PRES   REMARKS
BATESVILLE     RAIN      66  63  90 CALM      29.91S
CLEVELAND      CLOUDY    65  65 100 NW5       29.87F
GREENWOOD      CLOUDY    71  66  84 S10       29.86S
GREENVILLE     LGT RAIN  67  63  87 N3        29.87S
OXFORD         CLOUDY    66  64  94 NW7       29.93R
TUNICA         LGT RAIN  63  61  94 SW6G21    29.86F
WINONA         CLOUDY    66  65  97 CALM      29.90R
$$

MSZ003>006-009-014>017-022>024-029>033-037>039-301500-
NORTHEAST MISSISSIPPI

CITY           SKY/WX    TMP DP  RH WIND       PRES   REMARKS
COLUMBUS AFB   PTSUNNY   67  64  90 S5        29.91R
CORINTH        FAIR      68  63  83 S9G15     29.90S
GOLDN TRIANGLE PTSUNNY   68  64  88 SE7       29.89R
STARKVILLE     FAIR      68  64  88 CALM      29.90S
TUPELO         CLOUDY    67  62  84 S7        29.90F
$$

MSZ040-058-301500-
CENTRAL MISSISSIPPI

CITY           SKY/WX    TMP DP  RH WIND       PRES   REMARKS
JACKSON INTL   CLOUDY    72  68  87 SE7       29.86F
JACKSON HAWKNS CLOUDY    72  68  87 SE5       29.88S
MADISON        PTSUNNY   70  68  94 CALM      29.87F
MERIDIAN KEY   CLOUDY    72  68  87 S7        29.90R
MERIDIAN NAS   CLOUDY    70  64  83 SE5       29.91S
VICKSBURG TVR  CLOUDY    74  69  85 SE8       29.85F
VICKSBURG VKS  SUNNY     73  70  88 SE6       29.85F
$$

MSZ059>079-301500-
SOUTH MISSISSIPPI

CITY           SKY/WX    TMP DP  RH WIND       PRES   REMARKS
BROOKHAVEN     FAIR     N/A N/A N/A CALM      29.87R
COLUMBIA       CLOUDY    75  72  88 SE3       29.90S
HATTIESBURG    CLOUDY    77  70  79 SE7       29.88R
MCCOMB         CLOUDY    73  71  93 SE9       29.83F
NATCHEZ        CLOUDY    72  66  83 E7        29.85R
PINE BELT      CLOUDY    73  68  83 SE6       29.90R
$$

MSZ080>082-301500-
COASTAL MISSISSIPPI

CITY           SKY/WX    TMP DP  RH WIND       PRES   REMARKS
BILOXI         CLOUDY    77  76  96 SE12      29.86S
PASCAGOULA     CLOUDY    77  73  87 SE13      29.89R
GULFPORT       CLOUDY    77  73  87 SE20G25   29.85S
$$



USA.gov is the U.S. government's official web portal to all federal, state and local government web resources and services.